General Mariano Matamoros Airport

Jump to: basic info | weather | frequencies | runways | comments

Related pages: nearby airports | nearby navaids | notams | map

Basic information (top)

Codes: CVJ MMCB
Location: lon 18.834801, lat -99.261299, elev 4,277 ft / 1,304 m msl
Status: medium_airport
Scheduled airline service: yes
Links: Wikipedia Mobile

Weather (top)

Current conditions (rec'd 2014/10/25 02:53Z):

MMCB 250253Z 00000KT 10SM SCT030 SCT080 19/15 A3018 NOSIG RMK 8/470

Airport forecast (rec'd 2014/10/22 06:45Z):

TAF COR TAF COR MMCB 220542Z 2206/2306 00000KT 6SM HZ BKN020 BKN080 
      TEMPO 2206/2210 5SM RA 
     FM221000 00000KT 5SM HZ SCT020 BKN080 
      TEMPO 2211/2215 3SM BR BKN010 
     FM221500 15008KT P6SM SCT020 BKN080 
      BECMG 2218/2219 BKN020 BKN080 BKN220 
      TEMPO 2221/2301 5SM TSRA BKN020CB OVC080

Frequencies (top)

Verify before use: may be inaccurate or out of date.

APP: 128.9 MHz (TOLUCA APP)
TWR: 118.35 MHz (CUERNAVACA TWR)

Runways (top)

02/20: 9,439 x 148 ft (2,877 x 45 m) — paved — lighted — threshold 20 displaced 260 ft (79 m)

Latest comments (top)

No comments yet for General Mariano Matamoros Airport

More... (top)

See also NOTAMs and nearby airports and navaids, or visit the General Mariano Matamoros Airport page at the main OurAirports website..